HUSKYSAT-1 (HO-107) (45119 NORAD) Tracking and Keplerian Element Data

This shows tracking and keplerian element data for the satellite.

Feedback or suggestion? Click here.




ElementValue
Catalog45119
NameHUSKYSAT-1 (HO-107)
Epoch Orbit17720
Epoch Day85.03176075
Epoch Year2023
RAAN91.9048
Inclination51.624
Eccentricity0.0009345
Argument of Perigee76.7091
Mean Anonmoly283.4957
Mean Motion15.90831672
Decay Rate0.00540954
L11 45119U 19071J 23085.03176075 .00540954 12401-3 16925-2 0 9998
L22 45119 51.6240 91.9048 0009345 76.7091 283.4957 15.90831672177209



Live tracking and technical data element details for HUSKYSAT-1 (HO-107) (NORAD 45119). HUSKYSAT-1 (HO-107) can be tracked NOW for your location showing map with azimuth and elevation plus other details from your city location.







IsCatalogInMostPopularTable: catalog: 45119, numindb: 267
Update: records affected: 1



GetName: 45119 HUSKYSAT-1 (HO-107)

Hit Count: updated at: Thu, 23 Jan 2025 16:08:52 GMT